Regional Weather Roundup
Issued by NWS

Home | Current Version | Previous Version | Text Only | Print | Product List | Glossary Off
Versions: 1 2 3 4 5 6 7 8 9 10 11 12 13 14 15 16 17 18 19 20 21 22 23 24 25 26 27 28 29 30 31 32 33 34 35 36 37 38 39 40 41 42 43 44 45 46 47 48 49 50

000
ASUS43 KMPX 311710
RWRMN
WEATHER ROUNDUP FOR MINNESOTA
NATIONAL WEATHER SERVICE TWIN CITIES/CHANHASSEN MN
1200 PM CDT THU JUL 31 2014


NOTE: "FAIR" INDICATES FEW OR NO CLOUDS BELOW 12,000 FEET WITH NO
SIGNIFICANT WEATHER AND/OR OBSTRUCTIONS TO VISIBILITY. N/A MEANS
CURRENT SKY AND/OR WEATHER CONDITIONS ARE NOT AVAILABLE.

MNZ060>063-068>070-311800-
   Twin Cities Metro

CITY           SKY/WX    TMP DP  RH WIND       PRES   REMARKS
TWIN CITIES    MOSUNNY   79  54  41 W8        30.04S
ST PAUL        SUNNY     78  52  40 W8G18     30.03S
CRYSTAL        SUNNY     79  54  41 SW9       30.03S
BLAINE         PTSUNNY   79  57  47 W6        30.03F
LAKEVILLE      SUNNY     75  59  57 CALM      30.05S
EDEN PRAIRIE   SUNNY     79  57  46 W6        30.03F
SOUTH ST PAUL  SUNNY     78  54  43 W7        30.03S
LAKE ELMO      FAIR      77  57  50 W7        30.04S
$$
MNZ001>005-007-008-013>017-022>024-027-028-311800-
   Northwest Minnesota

CITY           SKY/WX    TMP DP  RH WIND       PRES   REMARKS
BEMIDJI        SUNNY     76  60  56 N9        30.02S
HALLOCK        SUNNY     79  63  57 NW5       30.02S
ROSEAU           N/A     77  57  50 NE3       30.02S
WARROAD        SUNNY     73  63  68 E5        30.02S
THIEF RVR FALL SUNNY     75  61  60 NW8       30.03F
CROOKSTON      SUNNY     73  64  73 NW5       30.04S
FOSSTON        SUNNY     75  63  64 NW6       30.04S
DETROIT LAKES  SUNNY     77  57  50 NW7       30.07S
MOORHEAD       SUNNY     79  59  50 W6        30.05S
PARK RAPIDS    SUNNY     78  57  48 NW13      30.04S
$$
MNZ006-009>011-018-025>026-311800-
   North Central Minnesota

CITY           SKY/WX    TMP DP  RH WIND       PRES   REMARKS
BAUDETTE       SUNNY     77  55  46 N7        30.02S
FLAG ISLAND    SUNNY     73  52  46 N7        30.00F
INTL FALLS     SUNNY     75  54  47 N12       30.00S
WASKISH        SUNNY     75  63  64 CALM      30.01S
BIG FORK       SUNNY     75  57  53 NW5       30.02R
LONGVILLE      SUNNY     75  61  60 NW5       30.03R
GRAND RAPIDS   SUNNY     75  61  60 NW8       30.01F
CRANE LAKE     SUNNY     72  54  53 N6        30.00F
ORR            SUNNY     73  52  46 NW6       29.98S
COOK           SUNNY     73  55  53 NW5       30.00F
$$
MNZ012-019>021-037-311800-
   Northeast Minnesota

CITY           SKY/WX    TMP DP  RH WIND       PRES   REMARKS
DULUTH         SUNNY     76  56  49 NW6       29.99F
ELY            SUNNY     72  52  49 NW3       29.99S
HIBBING        SUNNY     77  54  44 NW7       30.01R
EVELETH        SUNNY     73  52  46 NW8       30.01S
DULUTH HARBOR  SUNNY     75  64  69 CALM      29.97F
TWO HARBORS    SUNNY     75  54  46 NW5       29.96S
SILVER BAY     SUNNY     75  57  53 W5        29.96S
GRAND MARAIS     N/A     74  49  41 VRB6      29.93S
G MARAIS ARPRT SUNNY     70  45  40 NW6G21    29.99S
$$
MNZ029>031-032-039>041-046>048-054>057-064-311800-
   West Central Minnesota

CITY           SKY/WX    TMP DP  RH WIND       PRES   REMARKS
FERGUS FALLS   SUNNY     75  55  50 CALM      30.05F
WHEATON        SUNNY     75  57  53 NW7       30.07F
MORRIS         SUNNY     79  63  57 NW6       30.06R
ALEXANDRIA     SUNNY     75  54  47 VRB5      30.08S
ELBOW LAKE     FAIR      74  60  62 W3        30.06S
WADENA         SUNNY     77  59  53 NW6       30.05S
GLENWOOD       SUNNY     75  57  53 NW6       30.07S
APPLETON       SUNNY     81  55  41 W8        30.06S
BENSON         SUNNY     77  61  57 N7        30.06S
ORTONVILLE     SUNNY     79  55  44 W5        30.07S
MADISON        SUNNY     79  57  47 CALM      30.07S
WILLMAR        FAIR      77  55  47 W9        30.08R
$$
MNZ033>034-036-042>043-049>051-058-059-311800-
   Central Minnesota

CITY           SKY/WX    TMP DP  RH WIND       PRES   REMARKS
ST CLOUD       SUNNY     81  57  43 N5        30.04S
SAUK CENTRE    FAIR      76  55  48 NW8       30.06S
PAYNESVILLE    MOSUNNY   74  53  46 CALM      30.06S
AITKIN         SUNNY     79  64  61 NW6       30.01S
PINE RIVER     SUNNY     77  61  57 NW6       30.06S
BRAINERD       SUNNY     76  58  53 VRB7      30.04R
STAPLES        SUNNY     79  55  44 NW8       30.04F
LONG PRAIRIE   FAIR      73  55  53 NW3       30.06S
LITTLE FALLS   SUNNY     77  54  44 W9        30.04S
LITCHFIELD     SUNNY     77  61  57 NW5       30.06S
BUFFALO        SUNNY     77  54  44 W3        30.05S
MAPLE LAKE     SUNNY     78  57  49 NW5       30.05F
$$
MNZ037-044-045-052-053-311800-
   East Central Minnesota

CITY           SKY/WX    TMP DP  RH WIND       PRES   REMARKS
PRINCETON      SUNNY     81  59  47 W7        30.03S
MORA           SUNNY     75  61  60 NW7       30.03F
CAMBRIDGE      SUNNY     81  61  50 W8        30.01S
RUSH CITY      SUNNY     78  61  56 W6        30.02S
MOOSE LAKE     MOSUNNY   77  61  57 N7        29.99S
HINCKLEY       FAIR      77  64  65 W5        30.01S
CLOQUET        SUNNY     75  57  53 W6        30.00S
MCGREGOR       SUNNY     77  61  57 NW7       30.02S
$$
MNZ071>073-080-081-089-090-097-098-311800-
   Southwest Minnesota

CITY           SKY/WX    TMP DP  RH WIND       PRES   REMARKS
MONTEVIDEO     SUNNY     81  59  47 NW6       30.07F
GRANITE FALLS  SUNNY     77  56  48 W5        30.08F
CANBY          MOSUNNY   79  52  38 CALM      30.08S
MARSHALL       SUNNY     79  52  38 N5        30.07
REDWOOD FALLS  SUNNY     79  55  43 W5        30.06F
OLIVIA         SUNNY     77  55  47 NW7       30.06S
PIPESTONE      MOSUNNY   75  57  53 CALM      30.09S
WINDOM         MOSUNNY   75  54  46 CALM      30.08F
WORTHINGTON    SUNNY     73  54  49 W3        30.10F
JACKSON        MOSUNNY   73  54  49 CALM      30.09F
TRACY          PTSUNNY   78  56  46 N5        30.08S
SLAYTON        MOSUNNY   76  54  45 CALM      30.10S
$$
MNZ065>067-074>077-082>085-091>093-311800-
   South Central Minnesota

CITY           SKY/WX    TMP DP  RH WIND       PRES   REMARKS
MANKATO        SUNNY     75  55  50 W7        30.07S
NEW ULM        SUNNY     75  57  53 NW6       30.07S
ST JAMES       MOSUNNY   81  48  32 CALM      30.08S
FAIRMONT       PTSUNNY   79  50  36 W5        30.08S
GLENCOE        SUNNY     78  56  46 SW8       30.05S
FARIBAULT      SUNNY     81  52  36 SW7       30.06S
OWATONNA       SUNNY     77  55  47 W3        30.07S
WASECA         SUNNY     77  55  47 W6        30.09S
ALBERT LEA     SUNNY     79  54  41 W5        30.08S
$$
MNZ078>079-086>088-094>096-311800-
   Southeast Minnesota

CITY           SKY/WX    TMP DP  RH WIND       PRES   REMARKS
ROCHESTER      SUNNY     77  55  46 NW8       30.08S
RED WING       SUNNY     79  55  44 W8        30.03S
STANTON        SUNNY     78  56  47 W7        30.04S
DODGE CENTER   MOSUNNY   75  57  53 W12       30.07F
WINONA         SUNNY     77  59  53 W5        30.04S
AUSTIN         SUNNY     75  54  46 NW6       30.08S
PRESTON        SUNNY     74  60  63 NW10      30.08S
$$
ABBREVIATIONS USED IN REMARKS
   TC - TEMPERATURES IN CELSIUS
  WCI - WIND CHILL INDEX
   HX - HEAT INDEX
  VSB - VISIBILITY
$$



USA.gov is the U.S. government's official web portal to all federal, state and local government web resources and services.